Location: ActonStarParty
(42.4766°N, 71.4538°W)
Time: 03:45:50
(UTC-04:00)

Cosmos 1844 - Pass Details

Date: 19 April 2018
Orbit: 822 x 869 km, 70.9° (Epoch: 26 May)

Event Time Altitude Azimuth Distance (km) Brightness Sun altitude
Rises 20:27:22 0° 336° (NNW) 3,408 7.7 -10.3°
Reaches altitude 10° 20:29:49 10° 339° (NNW) 2,476 6.9 -10.7°
Maximum altitude 20:35:31 74° 64° (ENE) 891 3.7 -11.6°
Enters shadow 20:40:51 12° 149° (SSE) 2,347 5.5 -12.5°
